Powrót do katalogu

STARLINK-31911

AktywnyŁącznośćVLEO
NORAD 60587·PAYLOAD·🇺🇸 United States

Wystrzelony Aug 20, 2024 z Cape Canaveral Space Force Station

Loading…

Następne Przeloty (najbliższe 24 godziny)

TLE

ŚwieżeSource: CelesTrak SupGP

Epoka: Sep 14, 2026, 14:14 UTC

1 60587C 24150E   26257.59354167  .00062412  00000+0  18442-2 0  2572
2 60587  53.1576 145.5101 0001330 104.0938 158.5214 15.34355279    15

Śledź STARLINK-31911 w czasie rzeczywistym z AllMySat

Download on the App Store